Location: Seasalter
(51.3333°N, 1.0167°E)
Time: 15:19:03
(UTC+00:00)

ATLAS 5 CENTAUR R/B - Pass Details

Date: 02 May 2024
Orbit: 421 x 1169 km, 63.3° (Epoch: 22 May)

Event Time Altitude Azimuth Distance (km) Brightness Sun altitude
Rises 22:45:35 0° 315° (NW) 2,853 6.0 -21.3°
Reaches altitude 10° 22:47:38 10° 317° (NW) 2,046 5.1 -21.4°
Maximum altitude 22:52:18 75° 43° (NE) 779 2.0 -21.6°
Enters shadow 22:54:25 38° 121° (ESE) 1,195 2.6 -21.7°
